Regional Weather Roundup
Issued by NWS

Home | Current Version | Previous Version | Graphics & Text | Print | Product List | Glossary On
Versions: 1 2 3 4 5 6 7 8 9 10 11 12 13 14 15 16 17 18 19 20 21 22 23 24 25 26 27 28 29 30 31 32 33 34 35 36 37 38 39 40 41 42 43 44 45 46 47 48 49 50
000
ASUS43 KTOP 220308
RWRKS

WEATHER ROUNDUP FOR KANSAS
NATIONAL WEATHER SERVICE GOODLAND KS
900 PM CST TUE FEB 21 2017

NOTE:  "FAIR" INDICATES FEW OR NO CLOUDS BELOW 12,000 FEET WITH NO
SIGNIFICANT WEATHER AND/OR OBSTRUCTIONS TO VISIBILITY.

KSZ001>006-013>018-027>032-041>047-220400-
NORTHWEST KANSAS

CITY           SKY/WX    TMP DP  RH WIND       PRES   REMARKS
GOODLAND       CLEAR     62  17  17 S13       29.89F
HAYS             N/A     53  26  35 S8        29.88S
HILL CITY      CLEAR     55  26  32 SW8       29.85F
RUSSELL        CLEAR     48  27  44 S12       29.86S
$$

KSZ061>065-074>080-084>089-220400-
SOUTHWEST KANSAS

CITY           SKY/WX    TMP DP  RH WIND       PRES   REMARKS
DODGE CITY     CLEAR     52  23  32 S10       29.92S
ELKHART          N/A     54  21  27 MISG        N/A
GARDEN CITY    CLEAR     53  21  28 SE9       29.92S
GREAT BEND     CLEAR     48  26  42 S7        29.90S
LIBERAL        CLEAR     50  21  32 S8        29.95S
PRATT          CLEAR     46  33  61 S12       29.92S
$$

KSZ066>073-081>083-090>101-220400-
SOUTHEAST KANSAS

CITY           SKY/WX    TMP DP  RH WIND       PRES   REMARKS
CHANUTE        CLEAR     48  40  73 W3        29.92R
COFFEYVILLE    CLEAR     55  46  71 CALM      29.92R
HUTCHINSON     CLEAR     51  37  58 SE6       29.91S
MEDICINE LODGE   N/A     53  38  56 SE5       29.92S
NEWTON         CLEAR     51  38  60 S10       29.92F
PARSONS        CLEAR     46  41  82 CALM      29.93R
WICHITA INTL   CLEAR     50  39  66 S8        29.92R
WICHITA JABRA  CLEAR     53  37  54 S7        29.92R
WICHITA MCCONL CLEAR     53  37  53 S7        29.92R
WINFIELD       CLEAR     49  43  80 S3        29.95R
$$

KSZ007>012-019>026-033>040-048>060-102>105-220400-
NORTHEAST KANSAS

CITY           SKY/WX    TMP DP  RH WIND       PRES   REMARKS
CONCORDIA      CLEAR     60  29  30 S21       29.84S
EMPORIA        CLEAR     49  34  56 S9        29.91F
LAWRENCE       CLEAR     41  31  67 CALM      29.90R HAZE
MANHATTAN      CLEAR     42  35  76 CALM      29.88F
MARYSVILLE     CLEAR     54  36  50 S7        29.85S
OLATHE IND     CLEAR     51  36  56 SW3       29.91R
OLATHE EXE     CLEAR     51  39  63 CALM      29.90R
SALINA         CLEAR     51  37  58 S8        29.87F
TOPEKA BILLARD CLEAR     47  35  63 CALM      29.89F
TOPEKA FORBES  CLEAR     46  34  62 CALM      29.90S
$$




USA.gov is the U.S. government's official web portal to all federal, state and local government web resources and services.